Theta_e
300 294 291 294 296 293 293 290 288 292 297 297 296 296 298 301 299 297 297 301 304 306 310 309 310 315 317 318 322 324 323 323 324 323 321 321 321 322 321 323 324 323 325 324
293 289 295 298 298 296 293 290 289 293 296 293 292 291 296 298 299 300 300 300 301 303 305 307 307 308 312 317 319 322 325 325 324 325 324 323 323 322 323 324 323 324 324 324
290 293 298 297 294 293 292 290 290 290 293 292 289 288 290 295 298 300 301 301 301 301 303 305 306 305 306 308 312 319 323 325 326 326 325 323 321 319 319 321 322 323 324 324
292 297 295 294 293 294 289 294 294 292 288 282 288 277 286 290 291 292 295 297 299 300 300 302 302 301 303 304 307 311 315 321 325 327 325 324 322 320 322 322 323 324 324 324
287 291 292 291 293 296 291 295 292 291 287 284 284 279 282 288 287 291 293 294 296 297 298 299 300 302 304 305 306 308 309 311 317 323 326 325 324 325 325 324 322 322 324 324
289 293 293 292 295 296 296 292 291 289 285 275 283 281 278 283 287 291 292 293 295 296 297 299 300 302 303 305 306 307 308 309 311 311 319 322 324 325 324 324 323 323 323 324
286 289 292 294 290 292 293 286 274 273 272 274 282 281 281 287 290 290 292 294 295 297 297 299 298 300 301 301 302 304 305 307 309 310 310 314 321 324 324 325 325 324 323 322
280 276 288 292 290 287 289 287 279 271 272 275 280 277 283 290 291 293 293 297 298 298 298 298 298 298 297 298 299 299 300 302 305 307 308 309 311 320 324 325 325 326 325 325
282 282 290 293 293 292 287 284 288 280 271 273 278 281 287 290 291 290 293 295 295 296 295 296 296 296 296 297 298 299 300 301 302 304 306 308 309 310 313 320 324 325 326 326
286 280 288 290 293 292 290 292 282 279 267 266 274 276 279 284 288 291 292 292 292 293 294 294 295 295 296 297 298 299 300 300 301 302 303 305 305 305 307 309 311 318 324 326
288 284 282 288 286 286 287 285 286 286 280 274 272 275 283 287 288 289 290 292 292 293 293 293 293 295 297 296 296 297 298 299 301 302 302 302 303 304 306 307 309 311 314 318
290 285 277 282 289 291 290 286 286 279 276 279 278 278 288 288 289 290 290 292 292 292 292 291 295 295 294 295 297 298 299 299 301 301 302 302 303 304 303 305 305 305 306 308
290 284 273 278 285 287 286 288 288 287 284 280 275 277 290 288 289 290 290 289 292 290 291 294 294 294 293 295 296 297 298 299 300 302 302 302 302 302 302 302 302 303 304 305
294 285 282 277 279 285 282 286 287 285 280 280 280 282 285 287 289 289 288 289 290 290 293 293 293 292 294 296 296 296 297 298 300 301 302 302 302 302 302 302 302 303 304 303
290 282 284 285 283 285 284 284 286 284 284 280 283 283 287 290 291 291 291 290 289 291 292 292 291 292 294 295 295 297 298 299 299 299 300 301 302 302 302 302 301 302 302 303
291 277 285 281 285 283 281 284 285 286 286 285 285 284 291 291 291 289 290 291 290 291 292 292 292 293 294 295 295 296 297 297 298 297 297 299 299 299 299 299 299 300 300 301
288 282 276 278 283 282 278 281 284 285 287 287 283 287 292 291 291 292 292 291 291 291 291 291 294 293 294 294 295 294 295 296 295 295 296 295 295 295 295 296 296 296 297 299
286 284 281 274 275 273 283 289 287 285 287 289 289 290 292 292 293 294 293 292 291 292 292 293 293 293 293 293 292 293 292 292 292 292 291 291 291 292 292 291 291 293 294 295
290 286 282 278 277 277 280 283 285 284 284 289 288 290 291 293 290 291 293 294 293 292 293 293 293 293 292 291 291 289 288 288 287 287 287 288 287 289 290 291 291 292 293 293
289 289 283 279 275 273 282 285 288 288 279 289 290 290 290 291 284 288 292 292 292 293 292 292 291 290 289 288 287 285 285 285 285 286 287 287 289 289 289 290 290 291 291 291
282 283 280 279 277 277 283 286 287 275 278 289 289 289 290 288 290 289 292 291 291 291 291 290 288 287 286 285 284 283 283 283 285 285 286 287 288 288 289 289 289 288 288 289
281 281 280 281 278 274 286 283 281 287 290 287 287 290 289 290 290 290 290 289 289 289 288 285 284 284 284 284 282 282 282 284 284 284 285 286 287 288 288 287 287 288 288 287
279 284 282 283 282 287 287 289 288 289 288 287 286 286 288 288 288 289 288 288 287 286 285 284 282 282 282 282 281 281 282 282 282 283 284 285 287 287 287 286 286 286 288 287
283 286 280 282 284 286 289 288 289 288 287 288 288 289 289 288 288 287 286 285 285 284 283 280 278 278 278 277 279 278 279 280 279 281 283 285 286 286 286 286 286 286 286 287
283 284 282 282 284 285 288 288 289 288 286 287 287 288 289 288 286 286 283 281 282 282 280 278 277 278 277 275 274 272 276 277 277 279 281 284 286 285 285 285 285 286 286 286
285 284 282 281 287 288 289 289 288 287 286 287 287 286 285 286 284 283 279 280 278 277 276 275 275 274 274 272 273 272 271 272 274 276 279 283 285 285 283 283 284 288 289 289
Wind_Speed
3 4 10 11 7 3 3 2 3 4 3 5 7 6 8 9 7 9 9 10 11 13 11 6 5 6 7 6 9 12 12 11 11 9 8 7 10 8 5 8 9 10 11 12
3 10 8 6 7 7 5 4 7 7 7 3 6 9 9 10 13 15 19 15 14 6 8 9 7 5 6 8 10 9 13 12 13 11 10 8 8 8 9 8 9 12 14 14
6 5 16 10 7 9 6 7 4 6 6 6 4 10 9 11 14 19 22 17 12 11 11 9 8 7 6 6 7 8 13 15 14 14 7 4 3 1 3 7 9 11 14 15
9 12 10 10 8 9 8 6 8 5 3 5 5 7 6 9 13 9 15 12 14 14 8 8 9 7 5 4 0 2 2 3 7 13 10 13 11 11 11 11 9 10 14 16
10 8 14 10 10 8 5 6 3 2 2 3 3 3 8 7 7 17 14 10 9 9 8 9 7 6 5 4 3 2 1 2 4 6 9 10 12 10 9 8 11 12 13 16
8 1 8 9 6 10 7 6 6 4 3 4 9 8 5 6 7 7 4 6 7 7 7 7 5 7 6 6 4 4 5 4 5 3 7 8 12 12 9 10 9 9 9 11
3 13 3 3 7 3 7 8 2 4 1 9 3 7 7 8 7 4 8 7 7 8 7 7 8 7 5 6 6 5 6 8 8 6 7 8 9 12 14 14 11 12 9 10
8 5 12 6 7 7 6 9 6 9 6 5 2 8 8 14 5 8 7 8 7 7 5 7 7 4 3 4 5 5 6 7 8 8 9 8 8 7 9 11 11 11 11 12
8 7 3 10 5 10 5 11 8 4 2 3 6 7 9 3 1 3 8 8 8 7 7 6 6 2 4 5 6 5 6 7 8 8 7 8 7 7 8 9 11 11 14 13
4 2 4 7 5 4 7 8 5 1 3 5 6 5 7 2 8 8 9 7 7 6 6 3 3 4 3 4 5 6 7 7 8 8 7 8 8 9 10 10 13 14 15 15
5 3 4 7 9 17 9 6 6 6 6 5 2 7 8 17 11 9 7 8 9 7 6 5 1 3 4 4 5 6 6 7 8 8 8 8 8 10 12 12 12 11 11 12
10 4 4 11 4 9 16 7 9 6 4 5 1 9 1 7 8 9 8 8 7 6 5 5 4 4 3 4 6 7 7 7 8 8 8 9 9 10 11 13 12 9 11 11
15 6 3 3 6 3 12 13 11 12 2 13 6 7 8 3 8 6 5 3 2 3 4 1 3 3 2 5 5 6 7 8 8 9 10 9 9 10 12 13 12 10 13 14
18 6 17 17 7 10 13 18 21 15 10 10 19 10 5 7 6 7 1 4 6 5 3 3 2 3 6 5 6 6 6 7 7 8 9 10 11 10 11 12 12 13 13 13
12 14 13 19 5 10 13 20 21 22 30 17 30 23 23 22 21 12 8 6 4 5 6 4 4 4 3 6 8 10 10 10 11 12 13 13 10 11 13 12 10 10 10 13
10 5 16 14 18 8 5 15 20 29 30 22 31 24 15 10 9 8 10 8 7 8 8 7 6 2 4 4 6 7 10 13 12 15 15 13 13 13 12 13 13 13 14 15
22 9 5 19 18 4 8 18 24 20 24 23 25 32 22 21 14 15 13 8 9 9 10 9 7 4 4 5 4 6 9 10 13 13 14 15 14 16 14 13 13 15 16 17
19 19 6 5 6 16 12 19 14 20 20 20 22 22 25 21 14 17 9 13 10 11 8 7 4 3 4 3 4 5 5 9 11 14 14 13 12 14 14 14 15 16 15 18
18 19 8 9 13 3 2 10 21 21 29 22 22 28 29 18 7 22 13 11 12 9 7 6 5 3 2 6 6 6 9 8 7 10 11 11 9 14 15 16 16 15 16 17
19 20 15 6 10 13 17 13 13 10 15 19 23 31 29 11 11 24 9 8 9 8 6 6 3 2 3 5 4 6 9 9 10 10 12 12 14 14 16 15 15 14 14 17
15 18 23 18 10 6 8 13 12 13 13 23 18 20 24 18 22 3 7 7 7 7 8 5 3 1 6 7 5 8 8 10 10 9 12 13 13 15 14 14 13 14 15 15
7 10 12 19 17 8 14 6 14 22 15 9 9 21 20 16 9 9 10 9 8 8 6 2 2 3 6 7 6 9 10 9 9 11 13 13 13 11 10 13 13 13 12 13
12 14 9 9 7 8 7 19 8 6 8 9 6 5 11 9 9 11 9 9 8 6 2 1 4 5 6 6 6 9 9 10 10 13 13 14 13 11 10 10 11 10 9 9
6 7 5 7 6 12 16 9 9 9 10 6 8 8 8 7 8 8 8 7 4 2 2 1 3 6 6 5 6 8 8 9 9 14 13 12 11 11 9 7 6 7 7 9
0 7 8 8 6 5 9 12 14 9 7 5 4 7 9 8 7 7 5 4 4 3 2 2 5 7 8 4 5 5 7 9 10 13 13 12 9 9 8 6 5 6 7 7
7 5 3 6 16 15 15 9 5 10 11 12 10 6 4 7 8 5 3 3 3 3 2 3 6 7 8 5 7 7 4 6 10 13 11 9 9 8 5 4 4 8 10 7
Wind_Direction
222 153 198 200 195 218 53 12 274 260 269 241 243 250 259 286 292 276 292 274 254 250 263 269 262 237 217 209 180 186 177 181 179 189 190 199 208 207 206 210 204 196 202 202
118 225 211 195 207 227 269 275 277 299 300 205 278 260 237 249 262 251 249 252 261 271 284 281 287 273 220 204 198 192 194 181 189 193 201 205 201 216 214 210 202 200 202 202
180 239 193 202 197 199 210 223 240 243 320 320 308 287 253 250 244 258 258 249 245 231 233 254 271 263 288 264 242 208 197 190 191 196 186 187 167 135 213 220 217 213 207 206
231 251 166 205 214 181 216 205 233 247 297 236 80 286 288 270 258 243 264 240 239 238 226 225 238 254 215 221 180 188 215 217 208 190 187 199 204 210 221 225 220 221 215 213
225 192 205 207 205 174 189 119 130 192 193 347 168 281 259 250 256 256 253 243 225 225 224 241 231 201 155 95 99 102 21 334 218 201 211 200 212 216 220 220 223 216 218 218
214 251 177 197 163 184 160 90 54 50 75 285 199 188 249 218 219 254 240 227 199 160 140 119 93 62 45 38 26 9 356 310 291 224 215 215 220 221 219 222 222 226 221 221
208 225 166 150 128 98 122 113 11 1 356 239 229 196 250 261 247 288 173 123 134 118 106 99 68 62 58 29 3 342 337 303 290 270 260 229 221 223 224 222 224 226 225 221
165 275 172 187 167 168 169 157 160 197 200 258 104 235 263 230 283 201 140 141 126 104 104 99 107 87 11 327 311 304 301 295 293 282 266 254 235 228 232 233 234 236 233 230
180 241 112 174 149 141 187 210 174 70 18 56 240 277 307 248 144 132 146 143 145 127 121 104 60 2 294 296 288 276 289 284 276 263 261 265 255 246 244 243 244 242 243 239
191 190 213 179 116 229 167 139 155 87 218 249 253 249 229 259 227 191 179 162 131 134 124 157 211 251 288 303 297 300 292 282 281 279 261 257 249 244 244 246 247 248 248 244
204 130 309 123 202 187 180 186 188 174 181 203 249 251 218 227 206 182 168 157 162 156 187 224 300 263 259 280 303 301 303 296 290 280 275 269 260 253 255 252 243 236 245 251
180 123 175 202 179 205 218 197 194 180 217 228 235 259 138 117 131 134 152 168 178 175 213 181 204 240 290 322 314 314 301 294 274 270 269 267 268 268 264 258 249 240 246 247
174 196 97 21 279 263 212 212 211 228 39 225 149 253 208 143 137 162 165 156 245 285 141 187 346 338 303 284 283 285 284 284 286 292 290 283 273 267 265 262 257 248 251 251
173 162 203 207 199 144 200 208 215 208 231 227 234 233 274 235 244 247 224 231 260 271 257 269 339 302 305 299 280 274 276 270 280 294 288 288 285 276 269 264 259 255 251 257
185 215 207 228 204 178 195 204 206 210 229 212 246 242 237 247 267 289 263 250 198 256 271 231 222 250 254 307 318 325 325 323 321 315 308 303 307 302 293 283 270 269 269 268
198 237 217 232 232 191 180 209 212 216 228 233 247 254 243 244 228 229 245 251 247 257 249 229 231 212 294 301 307 313 319 316 320 315 311 309 303 301 300 296 292 291 284 278
195 183 140 233 224 193 227 221 212 219 229 220 235 237 268 253 243 245 247 230 239 235 213 215 186 221 260 287 284 300 302 311 312 307 306 307 307 306 307 302 296 290 287 287
191 197 185 224 103 224 226 221 210 215 230 227 251 254 247 256 245 254 214 229 214 214 215 176 186 208 246 257 291 279 294 299 296 297 298 298 296 297 305 304 302 301 295 290
201 193 204 208 219 328 299 211 197 200 236 214 227 247 249 251 296 275 234 200 208 209 172 170 175 198 313 312 308 312 305 291 278 279 284 288 287 297 300 295 293 294 291 288
208 201 203 175 215 210 219 228 196 205 251 235 219 239 250 229 236 256 171 162 151 155 160 166 139 122 309 302 312 305 296 294 291 293 298 298 299 291 290 290 294 291 284 283
208 205 208 213 224 246 225 219 141 158 220 236 221 231 238 225 223 170 147 145 156 164 165 133 103 339 300 305 303 285 279 278 285 292 297 297 294 291 282 285 285 286 284 285
215 228 206 215 219 234 223 102 188 217 226 203 205 219 231 231 204 172 173 166 167 169 168 124 31 266 262 270 280 279 280 289 296 302 300 296 287 285 286 286 285 282 280 282
206 201 235 212 204 207 204 212 225 158 191 212 191 205 204 181 180 171 174 171 179 173 167 165 214 243 242 253 249 280 291 305 306 307 300 300 292 290 287 286 290 294 294 290
245 213 208 208 214 210 218 227 204 198 186 157 179 183 166 160 156 175 168 183 187 144 290 249 247 246 238 228 237 253 285 296 300 302 298 297 293 293 289 285 288 290 299 298
33 337 242 249 269 265 247 204 218 200 185 157 137 172 177 165 192 195 207 185 173 195 236 235 265 280 274 228 242 259 299 306 305 305 297 293 286 280 285 278 294 314 287 281
166 181 257 278 277 252 253 252 165 162 189 197 172 182 180 171 180 164 175 183 165 171 218 265 270 279 287 297 302 304 289 284 305 304 300 293 293 284 267 282 298 334 344 334